SHT18A EGLL-EGPD

Flight info

Callsign SHT18A
Flight time 1h 14m
Altitude 36000
Route ULTIB1J ULTIB T420 AKUPA UY250 KEFTE DCT AGPED/N0441F350 DCT MADAD/N0404F240 P18 EPCAN DCT
Aircraft A319/M-SDE3FGIJ1KRWXY/LB1

Departure

Time 2026-05-05 11:10
Airport London Heathrow Airport (EGLL)

Arrival

Time 2026-05-05 12:24
Airport Aberdeen International Airport (EGPD)
Time Latitude Longitude Altitude Speed Heading
2026-05-05 10:46 51.47407 -0.48893 87 ft 0 kts 179°
2026-05-05 11:02 51.47420 -0.48894 110 ft 4 kts 179°
2026-05-05 11:02 51.47447 -0.48895 87 ft 4 kts 176°
2026-05-05 11:02 51.47474 -0.48900 88 ft 4 kts 165°
2026-05-05 11:02 51.47496 -0.48917 89 ft 3 kts 116°
2026-05-05 11:03 51.47497 -0.48921 89 ft 0 kts 112°
2026-05-05 11:04 51.47497 -0.48920 87 ft 1 kts 112°
2026-05-05 11:04 51.47490 -0.48895 89 ft 4 kts 110°
2026-05-05 11:04 51.47486 -0.48833 87 ft 7 kts 88°
2026-05-05 11:05 51.47486 -0.48735 88 ft 11 kts 90°
2026-05-05 11:05 51.47485 -0.48597 87 ft 14 kts 89°
2026-05-05 11:05 51.47434 -0.48477 87 ft 17 kts 180°
2026-05-05 11:05 51.47308 -0.48476 87 ft 18 kts 179°
2026-05-05 11:06 51.47187 -0.48475 87 ft 17 kts 180°
2026-05-05 11:06 51.47073 -0.48475 87 ft 16 kts 179°
2026-05-05 11:06 51.46972 -0.48473 87 ft 14 kts 179°
2026-05-05 11:06 51.46911 -0.48473 87 ft 0 kts 179°
2026-05-05 11:07 51.46910 -0.48472 87 ft 1 kts 179°
2026-05-05 11:07 51.46877 -0.48472 87 ft 7 kts 179°
2026-05-05 11:07 51.46804 -0.48471 87 ft 13 kts 179°
2026-05-05 11:07 51.46700 -0.48469 87 ft 16 kts 180°
2026-05-05 11:08 51.46578 -0.48469 88 ft 18 kts 180°
2026-05-05 11:08 51.46478 -0.48425 90 ft 14 kts 97°
2026-05-05 11:08 51.46478 -0.48351 89 ft 0 kts 89°
2026-05-05 11:08 51.46478 -0.48343 89 ft 4 kts 89°
2026-05-05 11:09 51.46479 -0.48021 87 ft 59 kts 90°
2026-05-05 11:09 51.46486 -0.47033 90 ft 115 kts 90°
2026-05-05 11:09 51.46493 -0.45442 114 ft 162 kts 87°
2026-05-05 11:09 51.46492 -0.43562 587 ft 174 kts 87°
2026-05-05 11:10 51.46597 -0.41564 1169 ft 185 kts 72°
2026-05-05 11:10 51.47272 -0.39679 1556 ft 208 kts 46°
2026-05-05 11:10 51.48287 -0.37828 2101 ft 232 kts 47°
2026-05-05 11:10 51.49384 -0.35794 2942 ft 244 kts 49°
2026-05-05 11:11 51.50492 -0.33705 4025 ft 248 kts 50°
2026-05-05 11:11 51.51612 -0.31566 5060 ft 253 kts 51°
2026-05-05 11:11 51.52510 -0.29072 5999 ft 261 kts 70°
2026-05-05 11:11 51.53119 -0.26263 6887 ft 268 kts 71°
2026-05-05 11:12 51.53722 -0.23399 7788 ft 273 kts 71°
2026-05-05 11:12 51.54147 -0.21443 8391 ft 277 kts 68°
2026-05-05 11:12 51.55302 -0.18943 9231 ft 282 kts 35°
2026-05-05 11:12 51.57111 -0.17857 10084 ft 286 kts
2026-05-05 11:13 51.59074 -0.18499 10735 ft 298 kts 333°
2026-05-05 11:13 51.60623 -0.20485 11087 ft 318 kts 312°
2026-05-05 11:13 51.61998 -0.23390 11487 ft 334 kts 307°
2026-05-05 11:13 51.63555 -0.26205 11893 ft 339 kts 318°
2026-05-05 11:14 51.65512 -0.28315 12302 ft 342 kts 335°
2026-05-05 11:14 51.67694 -0.29891 12722 ft 344 kts 336°
2026-05-05 11:14 51.69914 -0.31478 13146 ft 346 kts 336°
2026-05-05 11:14 51.72120 -0.33046 13570 ft 348 kts 336°
2026-05-05 11:15 51.74350 -0.34630 13983 ft 351 kts 336°
2026-05-05 11:15 51.76594 -0.36228 14359 ft 353 kts 336°
2026-05-05 11:15 51.78810 -0.37807 14747 ft 356 kts 336°
2026-05-05 11:15 51.81107 -0.39444 15143 ft 358 kts 336°
2026-05-05 11:16 51.83491 -0.41145 15571 ft 361 kts 336°
2026-05-05 11:16 51.85737 -0.42743 15956 ft 364 kts 336°
2026-05-05 11:16 51.88065 -0.44398 16365 ft 367 kts 336°
2026-05-05 11:16 51.90408 -0.46067 16776 ft 370 kts 335°
2026-05-05 11:17 51.92773 -0.47758 17200 ft 373 kts 335°
2026-05-05 11:17 51.95153 -0.49468 17629 ft 376 kts 335°
2026-05-05 11:17 51.97584 -0.51221 18064 ft 379 kts 335°
2026-05-05 11:17 52.00005 -0.52967 18475 ft 382 kts 335°
2026-05-05 11:18 52.02438 -0.54717 18857 ft 384 kts 335°
2026-05-05 11:18 52.04885 -0.56473 19242 ft 386 kts 335°
2026-05-05 11:18 52.07346 -0.58244 19628 ft 388 kts 335°
2026-05-05 11:18 52.09816 -0.60022 20025 ft 390 kts 335°
2026-05-05 11:19 52.12303 -0.61814 20427 ft 392 kts 335°
2026-05-05 11:19 52.14802 -0.63620 20836 ft 394 kts 334°
2026-05-05 11:19 52.17315 -0.65437 21248 ft 397 kts 334°
2026-05-05 11:19 52.19845 -0.67271 21669 ft 399 kts 334°
2026-05-05 11:20 52.22390 -0.69125 22093 ft 402 kts 334°
2026-05-05 11:20 52.24954 -0.70998 22520 ft 405 kts 334°
2026-05-05 11:20 52.27533 -0.72880 22956 ft 408 kts 334°
2026-05-05 11:20 52.30133 -0.74778 23407 ft 411 kts 334°
2026-05-05 11:21 52.32790 -0.76715 23812 ft 413 kts 334°
2026-05-05 11:21 52.35419 -0.78636 24188 ft 416 kts 334°
2026-05-05 11:21 52.38064 -0.80568 24571 ft 418 kts 334°
2026-05-05 11:21 52.40727 -0.82511 24964 ft 420 kts 333°
2026-05-05 11:22 52.43396 -0.84464 25362 ft 422 kts 333°
2026-05-05 11:22 52.46085 -0.86440 25762 ft 424 kts 333°
2026-05-05 11:22 52.48775 -0.88426 26167 ft 426 kts 333°
2026-05-05 11:22 52.51486 -0.90432 26583 ft 428 kts 333°
2026-05-05 11:23 52.54250 -0.92485 27009 ft 431 kts 333°
2026-05-05 11:23 52.56984 -0.94516 27439 ft 433 kts 333°
2026-05-05 11:23 52.59743 -0.96559 27876 ft 435 kts 333°
2026-05-05 11:23 52.62506 -0.98603 28422 ft 435 kts 333°
2026-05-05 11:24 52.65273 -1.00650 28984 ft 435 kts 333°
2026-05-05 11:24 52.68110 -1.02753 29570 ft 435 kts 334°
2026-05-05 11:24 52.70905 -1.04832 30149 ft 435 kts 334°
2026-05-05 11:24 52.73692 -1.06728 30639 ft 435 kts 340°
2026-05-05 11:25 52.76613 -1.08001 31142 ft 435 kts 348°
2026-05-05 11:25 52.79591 -1.08894 31658 ft 433 kts 349°
2026-05-05 11:25 52.82513 -1.10054 32181 ft 431 kts 342°
2026-05-05 11:25 52.85410 -1.11534 32716 ft 430 kts 342°
2026-05-05 11:26 52.88260 -1.13014 33259 ft 428 kts 343°
2026-05-05 11:26 52.91094 -1.14501 33805 ft 426 kts 343°
2026-05-05 11:26 52.93914 -1.15986 34308 ft 423 kts 343°
2026-05-05 11:26 52.96711 -1.17465 34790 ft 420 kts 342°
2026-05-05 11:27 52.99484 -1.18935 35275 ft 417 kts 342°
2026-05-05 11:27 53.02233 -1.20391 35768 ft 413 kts 342°
2026-05-05 11:27 53.04984 -1.21846 35976 ft 417 kts 341°
2026-05-05 11:28 53.10618 -1.24828 36024 ft 433 kts 341°
2026-05-05 11:28 53.16488 -1.27943 36020 ft 444 kts 341°
2026-05-05 11:29 53.22389 -1.31072 36016 ft 445 kts 341°
2026-05-05 11:29 53.28290 -1.34214 36021 ft 445 kts 341°
2026-05-05 11:30 53.34232 -1.37387 36023 ft 445 kts 341°
2026-05-05 11:30 53.40132 -1.40556 36028 ft 445 kts 341°
2026-05-05 11:31 53.46032 -1.43730 36034 ft 445 kts 341°
2026-05-05 11:31 53.50975 -1.46402 36032 ft 445 kts 341°
2026-05-05 11:32 53.56872 -1.49591 36038 ft 445 kts 341°
2026-05-05 11:32 53.62794 -1.52798 36037 ft 444 kts 341°
2026-05-05 11:33 53.68686 -1.55998 36039 ft 444 kts 341°
2026-05-05 11:33 53.74554 -1.59200 36036 ft 443 kts 340°
2026-05-05 11:34 53.80417 -1.62423 36032 ft 443 kts 340°
2026-05-05 11:34 53.86282 -1.65649 36022 ft 442 kts 340°
2026-05-05 11:35 53.92140 -1.68872 36029 ft 442 kts 340°
2026-05-05 11:35 53.98050 -1.72123 36034 ft 442 kts 340°
2026-05-05 11:36 54.04026 -1.74693 36033 ft 445 kts 352°
2026-05-05 11:36 54.10229 -1.75817 36038 ft 445 kts 352°
2026-05-05 11:37 54.16384 -1.76946 36040 ft 445 kts 352°
2026-05-05 11:37 54.22543 -1.78074 36041 ft 445 kts 352°
2026-05-05 11:38 54.28707 -1.79207 36042 ft 445 kts 351°
2026-05-05 11:38 54.34868 -1.80347 36046 ft 445 kts 351°
2026-05-05 11:39 54.41023 -1.81493 36049 ft 445 kts 351°
2026-05-05 11:39 54.47218 -1.82646 36061 ft 445 kts 351°
2026-05-05 11:40 54.53370 -1.83789 36060 ft 444 kts 351°
2026-05-05 11:40 54.59516 -1.84930 36057 ft 444 kts 351°
2026-05-05 11:41 54.65657 -1.86084 36056 ft 444 kts 351°
2026-05-05 11:41 54.71798 -1.87247 36052 ft 444 kts 351°
2026-05-05 11:42 54.78016 -1.88416 36053 ft 444 kts 351°
2026-05-05 11:42 54.84161 -1.89569 36055 ft 444 kts 351°
2026-05-05 11:43 54.90300 -1.90733 36056 ft 444 kts 351°
2026-05-05 11:43 54.96476 -1.91917 36063 ft 444 kts 351°
2026-05-05 11:44 55.02615 -1.93094 36063 ft 444 kts 351°
2026-05-05 11:44 55.08759 -1.94267 36068 ft 444 kts 351°
2026-05-05 11:45 55.14959 -1.94205 36063 ft 450 kts
2026-05-05 11:45 55.21156 -1.92522 36068 ft 450 kts
2026-05-05 11:46 55.27388 -1.90852 36068 ft 450 kts
2026-05-05 11:46 55.33584 -1.89194 36066 ft 450 kts
2026-05-05 11:47 55.39774 -1.87525 36058 ft 451 kts
2026-05-05 11:47 55.45983 -1.85846 36056 ft 451 kts
2026-05-05 11:48 55.55302 -1.83318 36049 ft 452 kts
2026-05-05 11:48 55.61518 -1.81612 36056 ft 452 kts
2026-05-05 11:49 55.67742 -1.79914 36062 ft 452 kts
2026-05-05 11:49 55.73965 -1.78207 36059 ft 452 kts
2026-05-05 11:50 55.80181 -1.76492 36063 ft 452 kts
2026-05-05 11:50 55.86407 -1.74771 36061 ft 453 kts
2026-05-05 11:51 55.92628 -1.74022 36066 ft 445 kts 349°
2026-05-05 11:51 55.98666 -1.76089 36067 ft 442 kts 344°
2026-05-05 11:52 56.04686 -1.78333 36070 ft 442 kts 344°
2026-05-05 11:52 56.10709 -1.80578 36073 ft 442 kts 344°
2026-05-05 11:53 56.16728 -1.82806 36077 ft 442 kts 344°
2026-05-05 11:53 56.22790 -1.85063 36079 ft 442 kts 344°
2026-05-05 11:54 56.27787 -1.86936 36083 ft 442 kts 344°
2026-05-05 11:54 56.33807 -1.89196 36089 ft 442 kts 344°
2026-05-05 11:55 56.39824 -1.91450 36100 ft 441 kts 344°
2026-05-05 11:55 56.45870 -1.93736 36103 ft 441 kts 344°
2026-05-05 11:56 56.51881 -1.96017 36104 ft 441 kts 344°
2026-05-05 11:56 56.57886 -1.98303 36106 ft 441 kts 344°
2026-05-05 11:57 56.63890 -2.00598 36109 ft 441 kts 344°
2026-05-05 11:57 56.69895 -2.02889 36115 ft 441 kts 344°
2026-05-05 11:58 56.75903 -2.05179 36115 ft 441 kts 343°
2026-05-05 11:58 56.81897 -2.07487 36109 ft 437 kts 343°
2026-05-05 11:59 56.84833 -2.08622 36103 ft 425 kts 343°
2026-05-05 11:59 56.86771 -2.09372 36103 ft 416 kts 343°
2026-05-05 11:59 56.88660 -2.10098 36115 ft 407 kts 343°
2026-05-05 12:00 56.91385 -2.11153 36102 ft 394 kts 343°
2026-05-05 12:00 56.94026 -2.12177 36106 ft 382 kts 343°
2026-05-05 12:00 56.99198 -2.14133 36110 ft 375 kts 343°
2026-05-05 12:01 57.04302 -2.16044 36111 ft 374 kts 343°
2026-05-05 12:01 57.09392 -2.17941 36112 ft 373 kts 343°
2026-05-05 12:02 57.14480 -2.19833 36114 ft 373 kts 343°
2026-05-05 12:02 57.19562 -2.21713 36113 ft 372 kts 343°
2026-05-05 12:03 57.24645 -2.23584 36111 ft 372 kts 343°
2026-05-05 12:03 57.29724 -2.25448 36111 ft 372 kts 343°
2026-05-05 12:04 57.34816 -2.27308 36112 ft 373 kts 343°
2026-05-05 12:04 57.39897 -2.29149 36119 ft 372 kts 343°
2026-05-05 12:05 57.44986 -2.30988 36124 ft 372 kts 343°
2026-05-05 12:05 57.50057 -2.32813 36012 ft 369 kts 343°
2026-05-05 12:06 57.52606 -2.33720 35714 ft 367 kts 343°
2026-05-05 12:06 57.55125 -2.34609 35233 ft 370 kts 343°
2026-05-05 12:06 57.57693 -2.35513 34751 ft 380 kts 342°
2026-05-05 12:06 57.60291 -2.36415 34282 ft 379 kts 342°
2026-05-05 12:07 57.62882 -2.37298 33758 ft 377 kts 343°
2026-05-05 12:07 57.65455 -2.38167 33208 ft 375 kts 343°
2026-05-05 12:07 57.68014 -2.39027 32678 ft 372 kts 343°
2026-05-05 12:07 57.70558 -2.39879 32149 ft 370 kts 343°
2026-05-05 12:08 57.73081 -2.40720 31638 ft 368 kts 343°
2026-05-05 12:08 57.75594 -2.41553 31133 ft 365 kts 342°
2026-05-05 12:08 57.78093 -2.42379 30637 ft 363 kts 342°
2026-05-05 12:08 57.80574 -2.43195 30144 ft 361 kts 343°
2026-05-05 12:09 57.83044 -2.44007 29561 ft 359 kts 343°
2026-05-05 12:09 57.85498 -2.44819 29011 ft 357 kts 343°
2026-05-05 12:09 57.87934 -2.45629 28455 ft 354 kts 343°
2026-05-05 12:09 57.90353 -2.46438 27914 ft 352 kts 343°
2026-05-05 12:10 57.92751 -2.47259 27372 ft 347 kts 341°
2026-05-05 12:10 57.94920 -2.48890 26855 ft 329 kts 320°
2026-05-05 12:10 57.96509 -2.51873 26336 ft 313 kts 298°
2026-05-05 12:10 57.97254 -2.55620 25830 ft 304 kts 276°
2026-05-05 12:11 57.97084 -2.59559 25332 ft 304 kts 254°
2026-05-05 12:11 57.96033 -2.62997 24844 ft 310 kts 231°
2026-05-05 12:11 57.94255 -2.65375 24360 ft 321 kts 209°
2026-05-05 12:11 57.92035 -2.66234 23880 ft 335 kts 186°
2026-05-05 12:12 57.89712 -2.65377 23344 ft 348 kts 164°
2026-05-05 12:12 57.87501 -2.63508 22791 ft 349 kts 160°
2026-05-05 12:12 57.85320 -2.61539 22245 ft 347 kts 160°
2026-05-05 12:12 57.83147 -2.59572 21706 ft 346 kts 160°
2026-05-05 12:13 57.80973 -2.57703 21175 ft 341 kts 166°
2026-05-05 12:13 57.78720 -2.56359 20663 ft 337 kts 169°
2026-05-05 12:13 57.76488 -2.55142 20157 ft 335 kts 169°
2026-05-05 12:13 57.74246 -2.53940 19610 ft 335 kts 169°
2026-05-05 12:14 57.72005 -2.52755 19017 ft 334 kts 169°
2026-05-05 12:14 57.69769 -2.51588 18441 ft 333 kts 169°
2026-05-05 12:14 57.67537 -2.50438 17785 ft 332 kts 169°
2026-05-05 12:14 57.65316 -2.49305 17140 ft 331 kts 169°
2026-05-05 12:15 57.63097 -2.48183 16497 ft 329 kts 169°
2026-05-05 12:15 57.60889 -2.47074 15879 ft 328 kts 169°
2026-05-05 12:15 57.58687 -2.45978 15267 ft 327 kts 169°
2026-05-05 12:15 57.56499 -2.44899 14673 ft 325 kts 169°
2026-05-05 12:16 57.54320 -2.43829 14083 ft 324 kts 169°
2026-05-05 12:16 57.52142 -2.42562 13436 ft 325 kts 161°
2026-05-05 12:16 57.50065 -2.40920 12789 ft 323 kts 160°
2026-05-05 12:16 57.48006 -2.39273 12152 ft 321 kts 160°
2026-05-05 12:17 57.45954 -2.37658 11521 ft 319 kts 160°
2026-05-05 12:17 57.43910 -2.36072 10914 ft 317 kts 160°
2026-05-05 12:17 57.41880 -2.34512 10324 ft 315 kts 160°
2026-05-05 12:17 57.39865 -2.32978 9688 ft 312 kts 160°
2026-05-05 12:18 57.37859 -2.31459 9029 ft 310 kts 160°
2026-05-05 12:18 57.35941 -2.29749 8566 ft 303 kts 145°
2026-05-05 12:18 57.34535 -2.26880 8154 ft 295 kts 117°
2026-05-05 12:18 57.33983 -2.23319 7773 ft 284 kts 89°
2026-05-05 12:19 57.34347 -2.19840 7386 ft 271 kts 60°
2026-05-05 12:19 57.35495 -2.17233 7001 ft 257 kts 31°
2026-05-05 12:19 57.37095 -2.16097 6622 ft 243 kts
2026-05-05 12:19 57.38699 -2.16650 6230 ft 233 kts 330°
2026-05-05 12:20 57.39835 -2.18670 5871 ft 226 kts 298°
2026-05-05 12:20 57.40149 -2.21446 5603 ft 222 kts 266°
2026-05-05 12:20 57.39558 -2.24039 5334 ft 221 kts 232°
2026-05-05 12:20 57.38292 -2.25598 5069 ft 222 kts 205°
2026-05-05 12:21 57.36831 -2.26563 4800 ft 216 kts 200°
2026-05-05 12:21 57.35391 -2.27423 4533 ft 220 kts 199°
2026-05-05 12:21 57.33925 -2.28290 4263 ft 222 kts 198°
2026-05-05 12:21 57.32390 -2.28565 3994 ft 224 kts 172°
2026-05-05 12:22 57.30920 -2.27726 3629 ft 218 kts 155°
2026-05-05 12:22 57.29531 -2.26692 3188 ft 213 kts 155°
2026-05-05 12:22 57.28181 -2.25689 2754 ft 204 kts 155°
2026-05-05 12:22 57.27287 -2.25007 2044 ft 214 kts 154°
2026-05-05 12:23 57.25954 -2.23992 1554 ft 201 kts 156°
2026-05-05 12:23 57.24700 -2.23102 1265 ft 185 kts 156°
2026-05-05 12:23 57.23579 -2.22287 998 ft 166 kts 153°
2026-05-05 12:23 57.22523 -2.21477 658 ft 162 kts 155°
2026-05-05 12:24 57.21490 -2.20738 327 ft 156 kts 156°
2026-05-05 12:24 57.20547 -2.20035 212 ft 125 kts 157°
2026-05-05 12:24 57.20018 -2.19650 221 ft 45 kts 158°
2026-05-05 12:24 57.19817 -2.19498 222 ft 22 kts 158°
2026-05-05 12:25 57.19671 -2.19383 224 ft 24 kts 159°
2026-05-05 12:25 57.19505 -2.19261 221 ft 24 kts 157°
2026-05-05 12:25 57.19429 -2.19347 221 ft 16 kts 284°
2026-05-05 12:25 57.19516 -2.19514 222 ft 20 kts 316°
2026-05-05 12:26 57.19636 -2.19699 223 ft 25 kts 329°
2026-05-05 12:26 57.19822 -2.19829 224 ft 33 kts 338°
2026-05-05 12:26 57.19942 -2.19989 221 ft 12 kts 316°
2026-05-05 12:26 57.20027 -2.20094 221 ft 14 kts 338°
2026-05-05 12:27 57.20040 -2.20141 221 ft 5 kts 240°
2026-05-05 12:27 57.20030 -2.20209 221 ft 1 kts 247°
2026-05-05 12:27 57.20027 -2.20222 221 ft 0 kts 246°